BADR-5 (36592 NORAD) Tracking and Keplerian Element Data

This shows tracking and keplerian element data for the satellite.

Feedback or suggestion? Click here.




ElementValue
Catalog36592
NameBADR-5
Epoch Orbit5390
Epoch Day35.11734414
Epoch Year2025
RAAN112.908
Inclination0.0547
Eccentricity9.61E-05
Argument of Perigee163.2914
Mean Anonmoly286.5254
Mean Motion1.00272296
Decay Rate1.49E-06
L11 36592U 10025A 25035.11734414 .00000149 00000+0 00000+0 0 9995
L22 36592 0.0547 112.9080 0000961 163.2914 286.5254 1.00272296 53904



Live tracking and technical data element details for BADR-5 (NORAD 36592). BADR-5 can be tracked NOW for your location showing map with azimuth and elevation plus other details from your city location.







IsCatalogInMostPopularTable: catalog: 36592, numindb: 394
Update: records affected: 1



GetName: 36592 BADR-5

Hit Count: updated at: Sat, 17 May 2025 09:51:16 GMT